{"data":{"norad_id":43072,"intl_designator":"2017-083C","name":"IRIDIUM 116","alt_names":[],"object_type":"PAYLOAD","status":"ACTIVE","operator":null,"country":"US","launch_date":"2017-12-23","launch_site_code":"AFWTR","launch_vehicle":null,"mission":null,"orbit_class":"UNKNOWN","rcs_meters":null,"size_class":null,"mass_kg":null,"dimensions":null,"purposes":["comms"],"wikipedia_slug":null,"has_3d_model":false,"image_url":null,"decayed_at":null,"tle_current":{"epoch":"2026-05-25T01:14:39.134112Z","epoch_age_seconds":77417,"freshness":"FRESH","line1":"1 43072U 17083C   26145.05184183 -.00000027  00000+0 -16829-4 0  9993","line2":"2 43072  86.3951 331.6782 0001768  83.1747 276.9650 14.34217826440856","mean_motion":14.34217826,"eccentricity":0.0001768,"inclination_deg":86.3951,"raan_deg":331.6782,"arg_perigee_deg":83.1747,"mean_anomaly_deg":276.965,"bstar":-1.6829e-5,"rev_number":44085,"period_min":100.40315870401,"perigee_km":776.40175543033,"apogee_km":778.93204768992,"semimajor_km":7155.8039015601,"source":"CELESTRAK","updated_at":"2026-05-25T13:38:14.805041Z"}}}